User: anonymous   Login
Location: Moscow
(55.7500°N, 37.5830°E)
Time: 06:26:44
(UTC+03:00)
Language:

Envisat - Orbit

View from above orbital plane
View from above orbital plane
View from above satellite
View from above satellite

Ground track
Ground track

The orbit data is extracted from the following two-line orbital elements,

1 27386U 02009A   21332.92776027  .00000068  00000-0  35860-4 0  9998
2 27386  98.1636 318.7005 0001317  89.7003 303.0843 14.38057091 34640
Epoch (UTC): 28 November 2021 22:15:58
Eccentricity: 0.0001317
inclination: 98.1636°
perigee height: 764 km
apogee height: 766 km
right ascension of ascending node: 318.7005°
argument of perigee: 89.7003°
revolutions per day: 14.38057091
mean anomaly at epoch: 303.0843°
orbit number at epoch: 3464

The dashed part of the orbit path shows where the satellite is in the earth's shadow,  

DLR